Location: Unspecified
(0.0000°N, 0.0000°E)
Time: 10:19:22
(UTC+00:00)

Vanguard 3 - Pass Details

Date: 24 September 2023
Orbit: 507 x 3241 km, 33.3° (Epoch: 06 December)

Event Time Altitude Azimuth Distance (km) Brightness Sun altitude
Rises 07:03:00 0° 255° (WSW) 4,073 10.1 17.7°
Reaches altitude 10° 07:06:29 10° 237° (WSW) 3,517 10.0 18.6°
Maximum altitude 07:12:51 20° 195° (SSW) 3,516 10.4 20.2°
Drops below altitude 10° 07:21:44 10° 154° (SSE) 5,085 11.6 22.4°
Sets 07:28:32 0° 140° (SE) 6,605 12.4 24.1°
